Home > Weather > Kaohsiung > Past weeks

Flag for Taiwan Weather for the Past 2 Weeks in Kaohsiung, Taiwan

Now
81 °F

Broken clouds.


Feels Like: 85 °F
Forecast: 65 / 83 °F
Wind: 12 mph from South

Location: Kaohsiung International Airport

Current Time: Feb 12, 2016 at 4:45:07 PM

Latest Report: Feb 12, 2016 at 4:00 PM


Visibility: N/A

Pressure: 29.92 "Hg

Humidity: 79%

Dew point: 73 °F

Location of KaohsiungLocation

Historic Weather in Kaohsiung — Graph

°F

Kaohsiung Temperature Yesterday

Maximum temperature yesterday: 82 °F (at 12:30 PM)
Minimum temperature yesterday: 64 °F (at 6:30 AM)
Average temperature yesterday: 73 °F

High & Low Weather Summary for the Past Weeks

 TemperatureHumidityPressure
High82 °F (Feb 11, 12:30 PM)100% (Jan 29, 4:00 AM)30.27 "Hg (Jan 29, 4:00 AM)
Low48 °F (Feb 7, 6:30 AM)12% (Feb 10, 2:30 PM)29.92 "Hg (Feb 5, 3:00 PM)
Average66 °F74%30.09 "Hg
* Reported Jan 28 3:00 PM — Feb 12 3:30 PM, Kaohsiung, Weather by CustomWeather, © 2016

Note: Actual official high and low records may vary slightly from our data, if they occured in-between our weather recording intervals... More about our weather records

Advertising

Kaohsiung Weather History for the Previous 24 Hours

 ConditionsComfort  
Time TempWeatherWind HumidityBarometerVisibility
3:30 PM
Fri, Feb 12
81 °FBroken clouds.10 mph74%29.92 "HgN/A
3:00 PM81 °FBroken clouds.8 mph79%29.92 "HgN/A
2:30 PM81 °FBroken clouds.8 mph79%29.95 "HgN/A
2:00 PM81 °FBroken clouds.12 mph74%29.95 "Hg6 mi
1:30 PM81 °FBroken clouds.12 mph79%29.95 "Hg5 mi
1:00 PM81 °FPartly sunny.14 mph84%29.95 "Hg5 mi
12:30 PM81 °FBroken clouds.12 mph84%29.98 "HgN/A
12:00 PM81 °FBroken clouds.12 mph89%29.98 "Hg4 mi
11:30 AM81 °FBroken clouds.14 mph84%29.98 "Hg4 mi
11:00 AM79 °FScattered showers. Broken clouds.8 mph84%30.01 "Hg4 mi
10:30 AM79 °FScattered showers. Fog.9 mph89%30.01 "Hg3 mi
10:00 AM75 °FLight rain. Fog.2 mph100%30.01 "Hg2 mi
9:30 AM73 °FLight rain. Fog.8 mph100%30.01 "Hg2 mi
9:00 AM73 °FLight rain. Fog.2 mph94%30.01 "Hg2 mi
8:30 AM72 °FLight rain. Fog.8 mph100%30.01 "Hg2 mi
8:00 AM72 °FLight rain. Fog.7 mph94%30.01 "Hg3 mi
7:30 AM70 °FLight rain. Fog.3 mph100%30.01 "Hg2 mi
7:00 AM70 °FLight rain. Fog.3 mph100%30.01 "Hg2 mi
6:00 AM70 °FLight rain. Fog.1 mph94%29.98 "Hg2 mi
5:00 AM70 °FLight rain. Fog.7 mph94%29.98 "Hg3 mi
4:00 AM72 °FLight rain. Fog.6 mph100%29.95 "Hg2 mi
3:00 AM70 °FLight rain. Fog.5 mph100%29.95 "Hg2 mi
2:57 AM70 °FLight rain. Fog.5 mph100%29.95 "Hg2 mi
2:00 AM70 °FLight rain. Fog.5 mph100%29.98 "Hg1 mi
1:00 AM68 °FLight rain. Fog.3 mph100%29.98 "Hg1 mi
12:00 AM68 °FLight rain. Fog.5 mph100%29.98 "Hg2 mi
11:51 PM
Thu, Feb 11
68 °FLight rain. Fog.6 mph100%29.98 "Hg2 mi
11:00 PM68 °FRain. Partly cloudy.5 mph94%30.01 "Hg1 mi
10:48 PM68 °FRain. Partly cloudy.5 mph94%30.01 "Hg1 mi
10:30 PM68 °FLight rain. Partly cloudy.5 mph94%30.01 "Hg2 mi
10:00 PM68 °FRain. Partly cloudy.8 mph94%30.01 "Hg1 mi
9:48 PM68 °FRain. Partly cloudy.7 mph94%30.01 "Hg1 mi
9:30 PM68 °FLight rain. Partly cloudy.3 mph94%30.01 "Hg2 mi
9:00 PM68 °FLight rain. Partly cloudy.10 mph94%30.01 "Hg3 mi
8:57 PM68 °FLight rain. Partly cloudy.10 mph94%30.01 "Hg3 mi
8:30 PM70 °FRain. Partly cloudy.6 mph88%30.01 "Hg3 mi
8:00 PM70 °FPartly cloudy.12 mph88%30.01 "Hg4 mi
7:30 PM72 °FPartly cloudy.12 mph83%29.98 "Hg4 mi
7:00 PM73 °FPassing clouds.12 mph78%29.98 "HgN/A
6:30 PM77 °FPartly cloudy.14 mph83%29.98 "HgN/A
6:00 PM77 °FPassing clouds.16 mph83%29.95 "HgN/A
5:30 PM79 °FPartly sunny.16 mph79%29.95 "HgN/A
5:00 PM79 °FPartly sunny.18 mph79%29.95 "HgN/A
4:30 PM79 °FPartly sunny.16 mph79%29.95 "HgN/A
4:00 PM81 °FPartly sunny.16 mph70%29.95 "HgN/A
Weather by CustomWeather, © 2016

See weather overviewHow to use our weather pages